Zurück zum Katalog

STARLINK-4389

AktivKommunikationSSO
NORAD 53475·PAYLOAD·🇺🇸 United States

Gestartet Aug 12, 2022 von Vandenberg Space Force Base

Loading…

Nächste Überflüge (nächste 24 Stunden)

TLE

AktuellSource: CelesTrak SupGP

Epoche: Sep 14, 2026, 14:34 UTC

1 53475C 22099L   26257.60743056  .00638230  00000+0  16164-1 0  2576
2 53475  97.4966  24.7082 0001402  91.6211   8.0010 15.39458035    10

Verfolge STARLINK-4389 in Echtzeit mit AllMySat

Download on the App Store